Flag for U.S.A. Weather past 2 weeks in Terre Haute, Indiana, U.S.A.

Now
25 °F

Overcast.


Feels Like: 25 °F
Forecast: 23 / 31 °F
Wind: No wind

Location: Terre Haute International Airport - Hulman Field

Current Time: Dec 18, 2014 at 7:35:28 AM

Latest Report: Dec 18, 2014 at 6:53 AM


Visibility: 10 mi

Pressure: 30.32 "Hg

Humidity: 75%

Dew point: 18 °F

Location of Terre HauteLocation

Historic Weather in Terre Haute — Graph

°F

Terre Haute temperature yesterday

Maximum temperature yesterday: 29 °F (at 12:53 AM)
Minimum temperature yesterday: 24 °F (at 6:53 PM)
Average temperature yesterday: 26 °F

Past Weeks' High & Low Weather Summary

 TemperatureHumidityPressure
High49 °F (Dec 14, 2:53 PM)100% (Dec 5, 3:53 AM)30.62 "Hg (Dec 5, 3:53 AM)
Low22 °F (Dec 7, 6:53 AM)64% (Dec 11, 12:53 PM)29.69 "Hg (Dec 16, 1:53 AM)
Average36 °F84%30.25 "Hg
* Reported Dec 3 5:53 AM — Dec 18 5:53 AM, Terre Haute, Weather by CustomWeather, © 2014

Note: Actual official high and low records may vary slightly from our data, if they occured in-between our weather recording intervals... More about our weather records

Advertising

Terre Haute weather history for previous 24 hours

 ConditionsComfort  
Time TempWeatherWind HumidityBarometerVisibility
5:53 AM
Dec 18
25 °FOvercast.No wind75%30.31 "Hg10 mi
4:53 AM25 °FOvercast.6 mph78%30.30 "Hg10 mi
3:53 AM25 °FOvercast.5 mph78%30.31 "Hg10 mi
2:53 AM25 °FOvercast.5 mph78%30.34 "Hg10 mi
1:53 AM25 °FOvercast.3 mph75%30.33 "Hg10 mi
12:53 AM25 °FOvercast.5 mph78%30.33 "Hg10 mi
11:53 PM
Dec 17
25 °FOvercast.7 mph75%30.34 "Hg10 mi
10:53 PM25 °FOvercast.6 mph78%30.34 "Hg9 mi
9:53 PM25 °FOvercast.7 mph78%30.33 "Hg10 mi
8:53 PM24 °FOvercast.6 mph81%30.34 "Hg9 mi
7:53 PM24 °FOvercast.5 mph81%30.34 "Hg10 mi
6:53 PM24 °FOvercast.7 mph81%30.33 "Hg10 mi
5:53 PM25 °FOvercast.9 mph78%30.32 "Hg10 mi
4:53 PM25 °FOvercast.9 mph81%30.32 "Hg8 mi
3:53 PM26 °FOvercast.9 mph77%30.30 "Hg9 mi
2:53 PM27 °FOvercast.8 mph78%30.29 "Hg10 mi
1:53 PM26 °FOvercast.8 mph77%30.29 "Hg9 mi
12:53 PM26 °FOvercast.8 mph77%30.31 "Hg10 mi
11:53 AM26 °FOvercast.7 mph77%30.33 "Hg10 mi
10:53 AM25 °FOvercast.9 mph81%30.34 "Hg10 mi
9:53 AM25 °FOvercast.10 mph81%30.34 "Hg10 mi
8:53 AM26 °FOvercast.8 mph81%30.33 "Hg9 mi
7:53 AM26 °FOvercast.8 mph84%30.31 "Hg10 mi
Weather by CustomWeather, © 2014

See weather overviewHow to use our weather pages